sat.trackr.live / text

‹ back to catalog

YAM-9

NORAD 66694 · 2025-276AE

PAYLOAD ACTIVE UNKNOWN

§ Identity

Operator
Country
US
Launch date
2025-11-28
Launch site
AFWTR
Launch vehicle
Mass (kg)
RCS (m²)

External: N2YO · Heavens-Above · Gunter

§ Orbital elements

Epoch: 2026-09-20T22:36:14.264064Z

Period
95.00 min
Inclination
97.4130°
Eccentricity
0.0008006
Mean motion
15.15765229 rev/d
Perigee alt
513.1 km
Apogee alt
524.2 km
Semi-major
6,896.8 km
B*
1.8334e-4
RAAN
334.2181°
Arg perigee
350.2262°
Mean anomaly
9.8814°
Rev number
4,485

§ Raw data

YAM-91 66694U 25276AE  26263.94183176  .00003434  00000+0  18334-3 0  99962 66694  97.4130 334.2181 0008006 350.2262   9.8814 15.15765229 44857

JSON: /api/v1/satellites/66694 · /tle

For live sub-satellite position, see the globe view (requires WebGL).

§ Visibility from observer

Set your observer location to see the next 7 days of passes ≥ 10°. The values pass through the URL so the page stays shareable.

No JS? Fill the form by hand. The geolocation button needs JavaScript.